Weather History for Warrenton, VA

Change the Weather History Date:

Friday, November 30, 2012

  Actual Average (KHEF) Record (KHEF)
Temperature  
Mean Temperature 37 °F -  
Max Temperature 52 °F 51 °F 71 °F (1998)
Min Temperature 22 °F 28 °F 17 °F (2013)
Degree Days  
Heating Degree Days 28    
Moisture  
Dew Point 30 °F    
Average Humidity 87    
Maximum Humidity 100    
Minimum Humidity 54    
Precipitation  
Precipitation 0.00 in - - ()
Sea Level Pressure  
Sea Level Pressure 30.33 in    
Wind  
Wind Speed 0 mph (East)    
Max Wind Speed 4 mph    
Max Gust Speed -    
Visibility 10 miles    
Events      
Averages and records for this station are not official NWS values.
T = Trace of Precipitation, MM = Missing Value Source: NWS Daily Summary

Daily Weather History Graph

Daily Weather History Graph

Search for Another Location

Airport:

Trip Planner

Search our weather history database for the weather conditions in past years. The results will help you decide how hot, cold, wet, or windy it might be!

Date:

Astronomy

Nov. 30, 2012 Rise Set
Actual Time 7:09 AM EST 4:50 PM EST
Civil Twilight 6:39 AM EST 5:19 PM EST
Nautical Twilight 6:06 AM EST 5:52 PM EST
Astronomical Twilight 5:34 AM EST 6:24 PM EST
Moon 6:43 PM EST (11/30) 8:39 AM EST (11/30)
Length of Visible Light 10h 39m
Length of Day
9h 41m
Waning Gibbous, 96% of the Moon is Illuminated
Nov 30
Waning Gibbous
Dec 6
Last Quarter
Dec 13
New
Dec 20
First Quarter
Dec 28
Full

Hourly Weather History & Observations

Time (EST) Temp. Windchill Dew Point Humidity Pressure Visibility Wind Dir Wind Speed Gust Speed Precip Events Conditions
12:15 AM 26.1 °F - 26.1 °F 100% 30.32 in 10.0 mi Calm Calm - N/A   Clear
12:35 AM 25.5 °F - 25.5 °F 100% 30.32 in 10.0 mi Calm Calm - N/A   Clear
12:55 AM 27.5 °F - 27.5 °F 100% 30.32 in 10.0 mi Calm Calm - N/A   Clear
1:15 AM 25.7 °F - 25.7 °F 100% 30.32 in 10.0 mi Calm Calm - N/A   Clear
1:35 AM 26.4 °F - 26.4 °F 100% 30.32 in 10.0 mi Calm Calm - N/A   Clear
1:55 AM 26.4 °F 22.4 °F 26.1 °F 99% 30.32 in 10.0 mi SE 3.5 mph - N/A   Clear
2:15 AM 24.1 °F - 24.1 °F 100% 30.32 in 10.0 mi Calm Calm - N/A   Clear
2:35 AM 25.5 °F - 25.5 °F 100% 30.32 in 10.0 mi Calm Calm - N/A   Clear
2:55 AM 25.5 °F - 25.5 °F 100% 30.32 in 10.0 mi Calm Calm - N/A   Clear
3:15 AM 24.4 °F - 24.4 °F 100% 30.32 in 10.0 mi Calm Calm - N/A   Clear
3:35 AM 23.7 °F - 23.7 °F 100% 30.31 in 10.0 mi Calm Calm - N/A   Clear
3:55 AM 23.9 °F - 23.9 °F 100% 30.31 in 10.0 mi Calm Calm - N/A   Clear
4:15 AM 23.7 °F - 23.7 °F 100% 30.31 in 10.0 mi Calm Calm - N/A   Clear
4:55 AM 23.5 °F - 23.5 °F 100% 30.31 in 10.0 mi Calm Calm - N/A   Clear
5:15 AM 23.4 °F - 23.4 °F 100% 30.31 in 10.0 mi Calm Calm - N/A   Clear
5:35 AM 23.0 °F - 23.0 °F 100% 30.31 in 10.0 mi Calm Calm - N/A   Clear
5:55 AM 24.3 °F - 24.3 °F 100% 30.32 in 10.0 mi Calm Calm - N/A   Clear
6:15 AM 23.0 °F - 23.0 °F 100% 30.32 in 10.0 mi Calm Calm - N/A   Clear
6:35 AM 23.7 °F - 23.7 °F 100% 30.33 in 10.0 mi Calm Calm - N/A   Clear
6:55 AM 23.9 °F - 23.9 °F 100% 30.34 in 10.0 mi Calm Calm - N/A   Clear
7:15 AM 22.5 °F - 22.5 °F 100% 30.34 in 10.0 mi Calm Calm - N/A   Clear
7:35 AM 22.6 °F - 22.6 °F 100% 30.34 in 10.0 mi Calm Calm - N/A   Clear
7:55 AM 24.8 °F - 24.8 °F 100% 30.35 in 10.0 mi Calm Calm - N/A   Clear
8:15 AM 26.4 °F - 26.4 °F 100% 30.35 in 10.0 mi Calm Calm - N/A   Clear
8:35 AM 28.8 °F - 28.8 °F 100% 30.35 in 10.0 mi Calm Calm - N/A   Clear
8:55 AM 31.6 °F - 31.5 °F 99% 30.35 in 10.0 mi Calm Calm - N/A   Clear
9:15 AM 34.2 °F - 32.4 °F 93% 30.36 in 10.0 mi Calm Calm - N/A   Clear
9:35 AM 36.5 °F - 32.7 °F 86% 30.37 in 10.0 mi Calm Calm - N/A   Clear
9:55 AM 37.9 °F - 32.9 °F 82% 30.37 in 10.0 mi Calm Calm - N/A   Clear
10:15 AM 40.5 °F - 34.0 °F 78% 30.37 in 10.0 mi Calm Calm - N/A   Scattered Clouds
10:35 AM 42.1 °F - 34.3 °F 74% 30.37 in 10.0 mi Calm Calm - N/A   Scattered Clouds
10:55 AM 44.1 °F - 34.0 °F 68% 30.36 in 10.0 mi Calm Calm - N/A   Clear
11:15 AM 46.4 °F - 35.2 °F 65% 30.36 in 10.0 mi Calm Calm - N/A   Clear
11:35 AM 47.1 °F - 35.2 °F 63% 30.35 in 10.0 mi Calm Calm - N/A   Clear
11:55 AM 47.7 °F - 35.4 °F 63% 30.34 in 10.0 mi Calm Calm - N/A   Clear
12:15 PM 49.8 °F - 36.1 °F 59% 30.34 in 10.0 mi Calm Calm - N/A   Scattered Clouds
12:35 PM 50.0 °F - 34.7 °F 56% 30.33 in 10.0 mi Calm Calm - N/A   Mostly Cloudy
12:55 PM 50.7 °F - 35.1 °F 55% 30.32 in 10.0 mi Calm Calm - N/A   Mostly Cloudy
1:15 PM 50.2 °F - 35.2 °F 57% 30.32 in 10.0 mi Calm Calm - N/A   Mostly Cloudy
1:35 PM 51.1 °F - 35.2 °F 55% 30.31 in 10.0 mi Calm Calm - N/A   Mostly Cloudy
1:55 PM 50.7 °F - 36.0 °F 57% 30.30 in 10.0 mi Calm Calm - N/A   Scattered Clouds
2:15 PM 51.1 °F - 35.6 °F 55% 30.30 in 10.0 mi Calm Calm - N/A   Scattered Clouds
2:35 PM 51.8 °F - 35.8 °F 54% 30.30 in 10.0 mi Calm Calm - N/A   Scattered Clouds
2:55 PM 51.8 °F - 36.5 °F 56% 30.30 in 10.0 mi Calm Calm - N/A   Clear
3:15 PM 52.3 °F - 36.0 °F 54% 30.30 in 10.0 mi Calm Calm - N/A   Clear
3:35 PM 52.2 °F - 36.1 °F 54% 30.30 in 10.0 mi NE 3.5 mph - N/A   Clear
3:55 PM 51.1 °F - 36.9 °F 58% 30.30 in 10.0 mi Calm Calm - N/A   Clear
4:15 PM 51.1 °F - 36.1 °F 57% 30.30 in 10.0 mi Calm Calm - N/A   Clear
4:35 PM 47.5 °F - 36.7 °F 66% 30.30 in 10.0 mi Calm Calm - N/A   Clear
4:55 PM 42.4 °F - 36.1 °F 78% 30.30 in 10.0 mi Calm Calm - N/A   Clear
5:15 PM 41.7 °F - 35.2 °F 78% 30.30 in 10.0 mi Calm Calm - N/A   Clear
5:35 PM 37.6 °F - 33.4 °F 85% 30.30 in 10.0 mi Calm Calm - N/A   Clear
5:55 PM 38.3 °F - 34.2 °F 85% 30.30 in 10.0 mi Calm Calm - N/A   Clear
6:15 PM 35.2 °F - 33.6 °F 94% 30.31 in 10.0 mi Calm Calm - N/A   Clear
6:35 PM 34.7 °F - 32.7 °F 92% 30.32 in 10.0 mi Calm Calm - N/A   Clear
6:55 PM 34.7 °F - 33.4 °F 95% 30.33 in 10.0 mi Calm Calm - N/A   Clear
7:15 PM 33.6 °F - 33.4 °F 99% 30.33 in 10.0 mi Calm Calm - N/A   Clear
7:35 PM 32.4 °F - 31.6 °F 97% 30.33 in 10.0 mi Calm Calm - N/A   Clear
7:55 PM 33.1 °F - 32.7 °F 99% 30.33 in 10.0 mi Calm Calm - N/A   Clear
8:15 PM 32.0 °F - 31.5 °F 98% 30.33 in 10.0 mi Calm Calm - N/A   Clear
8:35 PM 30.0 °F - 30.0 °F 100% 30.33 in 10.0 mi Calm Calm - N/A   Clear
8:55 PM 30.6 °F - 30.6 °F 100% 30.34 in 10.0 mi Calm Calm - N/A   Clear
9:15 PM 32.5 °F - 32.2 °F 99% 30.34 in 10.0 mi Calm Calm - N/A   Clear
9:35 PM 32.0 °F - 31.8 °F 99% 30.34 in 10.0 mi Calm Calm - N/A   Clear
9:55 PM 29.7 °F - 29.7 °F 100% 30.33 in 10.0 mi Calm Calm - N/A   Clear
10:15 PM 30.7 °F - 30.7 °F 100% 30.33 in 10.0 mi Calm Calm - N/A   Clear
10:35 PM 28.4 °F - 28.4 °F 100% 30.34 in 10.0 mi Calm Calm - N/A   Clear
10:55 PM 28.9 °F - 28.9 °F 100% 30.34 in 10.0 mi Calm Calm - N/A   Clear
11:15 PM 27.1 °F - 27.1 °F 100% 30.34 in 10.0 mi Calm Calm - N/A   Clear
11:35 PM 27.5 °F - 27.5 °F 100% 30.34 in 10.0 mi Calm Calm - N/A   Clear
11:55 PM 28.6 °F - 28.6 °F 100% 30.34 in 10.0 mi Calm Calm - N/A   Clear